IRIDIUM 6

Last updated on Wed Nov 29 2017 00:19:02 GMT+0000 (Coordinated Universal Time)

1 24794U 97020C 17332.26440249 .00000224 00000-0 62167-4 0 9995 2 24794 86.3984 250.2335 0001711 93.9663 266.1733 14.42030180 76714

Satellite not in orbit

IRIDIUM 6